Location: Quaker Farms
(41.4276°N, 73.1557°W)
Time: 21:53:50
(UTC+00:00)

Vanguard 1 - Pass Details

Date: 17 June 2021
Orbit: 651 x 3832 km, 34.2° (Epoch: 25 July)

Event Time Altitude Azimuth Distance (km) Brightness Sun altitude
Rises 05:54:12 0° 268° (W) 7,541 14.4 -23.7°
Reaches altitude 10° 05:59:54 10° 266° (W) 6,161 13.9 -23.4°
Maximum altitude 06:16:55 61° 192° (SSW) 2,310 11.5 -22.4°
Drops below altitude 10° 06:26:02 10° 115° (ESE) 3,485 12.8 -21.7°
Sets 06:28:21 0° 111° (ESE) 4,176 13.3 -21.6°
